Wind_Speed
11 9 8 6 5 4 6 13 13 13 17 23 21 24 23 19 16 16 23 24 21 18 17 16 18 17 11 11 14 5 10 5 7 6 6 3 7 12 13 12 18 23 18
9 11 8 7 7 5 4 10 18 13 16 21 20 20 25 23 18 18 17 22 21 18 18 16 18 18 15 15 12 13 11 8 9 7 5 3 6 9 8 12 17 16 19
12 10 9 9 7 7 6 7 18 16 17 21 22 19 22 25 21 18 17 18 18 17 16 18 18 18 15 14 11 11 9 14 12 7 5 3 2 2 4 7 5 12 16
15 11 10 7 10 9 9 8 13 19 18 21 20 18 18 25 24 20 19 19 20 20 20 19 20 19 20 18 12 14 12 14 14 12 10 7 4 4 4 3 5 5 11
15 15 12 10 9 10 11 9 11 15 20 20 22 19 18 18 25 24 21 18 17 17 21 19 18 18 18 21 19 16 20 26 17 13 12 10 8 8 6 4 5 6 9
14 17 13 13 12 10 13 11 10 12 18 20 23 25 22 20 21 25 25 22 19 18 19 18 18 18 17 23 24 21 22 21 17 12 13 11 9 10 10 10 9 11 11
14 17 16 13 14 14 14 14 10 10 12 17 21 24 27 27 24 21 22 26 25 22 21 20 20 23 22 21 22 22 21 21 19 16 14 13 11 12 13 15 14 12 14
28 26 18 14 15 13 13 16 12 10 11 13 17 22 23 28 28 28 25 21 24 27 26 25 27 26 25 23 24 24 27 26 26 22 20 19 19 16 16 15 17 17 16
23 33 20 15 15 14 13 13 17 16 16 12 13 15 22 25 31 34 33 31 28 26 30 30 30 31 31 30 28 27 28 28 27 24 22 20 19 16 12 18 17 16 15
16 18 15 15 15 15 16 14 17 17 18 16 14 15 18 21 24 28 32 34 34 33 32 31 33 33 33 33 33 33 33 31 28 29 26 22 22 21 20 15 18 21 19
19 17 17 15 15 17 16 15 15 17 18 22 18 17 18 19 20 21 23 27 31 35 37 34 34 36 37 36 37 37 38 36 36 33 29 27 26 26 22 26 24 18 22
23 21 19 18 17 16 16 18 19 16 17 21 22 22 20 20 19 20 22 21 22 23 25 31 35 37 37 36 37 39 38 40 41 39 37 35 32 33 34 26 27 21 25
28 25 10 28 34 25 21 22 21 25 21 20 22 22 24 22 19 18 21 23 22 23 23 24 25 28 31 32 33 33 38 41 42 41 42 42 41 40 38 35 32 31 30
33 29 20 39 37 32 35 35 38 29 26 23 21 19 20 23 21 18 17 19 21 22 24 27 28 31 32 33 34 36 38 40 42 43 42 43 46 47 45 42 40 36 37
38 36 29 31 38 42 28 28 26 28 25 24 23 22 20 20 21 21 18 18 17 18 18 19 24 27 29 32 37 39 39 40 43 45 46 48 48 47 48 48 43 43 43
43 41 37 34 40 47 47 35 33 32 27 26 25 25 22 21 21 21 23 22 20 17 13 10 10 12 13 15 17 18 18 20 25 34 42 49 50 50 49 45 48 44 45
49 47 44 42 40 49 51 48 50 40 34 30 29 27 25 23 23 20 20 22 20 17 12 11 11 7 8 7 7 4 1 4 5 8 15 26 36 43 46 47 48 47 48
55 54 50 49 50 50 52 52 51 48 42 39 35 32 30 26 22 20 17 19 19 17 15 12 11 12 5 3 5 5 4 6 4 5 6 7 4 20 33 41 44 45 44
61 61 60 60 57 54 53 55 54 51 45 47 43 37 27 25 21 21 18 15 16 17 15 15 13 9 8 9 9 9 7 9 6 2 5 8 7 8 3 8 19 30 39
66 68 68 62 60 60 57 56 55 55 53 51 46 40 34 27 23 22 20 18 15 14 15 11 12 13 10 12 15 15 16 14 8 8 8 4 4 2 7 6 4 2 2
61 66 69 68 66 65 63 61 60 58 57 52 50 43 37 31 25 25 26 23 17 14 11 9 12 11 13 11 14 16 21 21 19 11 14 14 10 8 11 12 11 9 14
54 61 67 69 69 69 67 66 64 61 59 55 51 47 42 33 31 29 28 24 24 16 14 11 13 12 14 18 17 17 21 24 26 26 26 22 23 19 20 18 17 17 17
52 55 61 65 66 70 70 69 67 65 60 57 54 49 46 36 37 37 32 32 33 33 30 25 15 9 15 24 28 23 20 22 27 31 34 31 25 26 31 33 31 30 29
49 49 51 57 62 64 70 72 70 68 64 61 57 53 49 42 38 39 36 37 45 30 30 28 18 20 25 36 33 31 26 29 27 26 32 35 37 34 32 33 35 34 36
43 45 47 50 56 60 64 68 73 72 67 64 59 56 51 44 41 38 35 37 33 32 32 35 29 22 33 38 50 54 40 39 34 29 28 35 37 38 37 36 39 42 42
42 41 42 47 49 54 58 61 66 72 70 65 63 59 52 48 41 37 36 36 35 31 35 36 42 37 35 36 41 64 65 49 36 31 30 30 36 34 33 36 37 38 39
Wind_Direction
320 326 315 273 232 214 218 203 196 198 200 197 195 201 201 197 196 199 207 210 212 222 219 209 213 214 204 187 169 219 218 195 164 58 298 53 64 51 44 49 37 34 21
305 312 316 298 250 231 207 204 197 194 198 199 199 204 204 202 203 199 202 210 211 216 218 209 207 217 223 219 224 201 220 230 202 209 196 105 89 54 22 39 26 28 26
298 293 309 307 275 236 213 198 208 206 189 192 198 204 204 203 205 200 195 202 206 210 213 208 207 215 216 216 221 206 212 241 212 227 228 245 158 190 10 20 336 350 6
295 292 287 299 290 256 235 208 205 214 205 193 198 204 202 204 205 205 203 202 206 212 214 212 214 213 222 224 219 208 219 258 232 243 238 234 260 259 311 345 335 317 337
290 292 290 281 280 279 244 224 207 211 226 214 198 202 211 206 213 211 213 216 216 212 208 210 216 220 220 217 216 203 186 222 226 227 240 248 264 262 273 308 334 314 335
282 287 289 289 282 276 250 231 230 216 222 232 216 206 204 213 210 217 221 219 219 223 218 211 215 221 223 218 223 222 222 223 227 243 241 241 254 270 282 278 292 308 314
292 285 287 283 283 285 277 224 231 238 225 233 221 216 213 210 209 210 218 226 225 222 223 225 218 220 222 226 231 234 237 227 233 249 253 260 258 267 275 276 273 285 299
346 297 282 282 281 279 285 237 229 244 237 234 235 221 221 218 221 216 210 218 228 227 225 228 225 221 229 233 239 242 240 238 244 250 248 259 262 252 261 271 273 272 279
168 259 283 282 280 271 270 269 263 259 249 233 243 239 226 224 222 220 218 223 223 229 231 228 228 230 232 236 239 248 248 242 246 246 247 253 251 248 243 270 270 273 278
256 264 276 286 279 270 269 278 288 278 255 241 240 247 249 234 227 229 226 224 225 228 229 232 233 237 239 241 243 247 250 249 250 252 253 251 240 238 246 252 276 282 271
270 268 266 271 269 266 260 255 267 284 272 255 243 239 244 245 239 238 235 234 235 236 231 230 231 234 238 240 243 246 250 254 254 255 254 249 239 233 246 257 267 263 267
267 259 261 264 276 277 279 270 263 260 274 265 256 247 242 242 243 245 242 239 237 237 240 239 241 244 246 249 248 247 248 249 251 251 251 249 244 236 236 248 249 240 269
260 259 261 286 293 282 288 289 274 268 259 262 265 255 245 241 240 246 254 250 245 242 240 242 243 244 248 251 252 250 250 250 250 249 246 248 248 244 244 246 243 240 244
259 256 227 191 239 260 266 272 272 260 259 256 262 262 252 243 239 240 246 255 254 254 252 250 251 253 253 252 251 250 251 254 254 252 249 247 246 245 245 245 245 242 245
257 254 238 221 229 235 244 247 251 250 251 254 258 260 256 249 246 244 244 249 253 258 265 254 256 255 254 254 254 255 256 258 257 254 252 250 249 246 245 241 245 245 244
253 250 245 227 230 230 229 243 250 251 249 251 254 255 254 256 254 254 254 250 250 256 276 299 280 258 236 226 232 238 248 255 258 257 256 254 249 245 241 243 242 244 246
251 251 246 244 230 227 240 244 248 250 247 246 247 248 247 249 254 254 258 259 260 254 273 297 319 298 195 172 169 146 140 281 286 290 274 259 251 247 247 243 243 246 248
249 249 246 245 242 238 239 243 246 248 248 248 248 248 245 244 249 256 256 263 267 253 264 268 298 330 311 241 212 259 308 356 357 26 29 25 304 256 252 251 252 253 251
251 249 246 241 241 241 241 240 241 243 241 245 245 247 250 249 244 254 254 247 259 260 254 259 266 265 282 284 304 278 293 262 292 168 107 81 57 44 22 264 258 259 257
244 246 247 245 240 240 240 241 241 241 242 241 242 243 245 246 243 246 244 245 263 254 249 261 270 293 288 264 271 277 276 283 258 246 213 206 173 208 228 211 228 235 282
252 247 246 245 242 239 237 237 238 237 239 242 245 243 242 245 245 240 233 240 251 251 237 258 279 287 284 291 274 270 270 275 275 258 248 238 241 268 268 254 258 243 254
249 247 245 241 240 239 236 235 237 237 237 236 242 246 242 237 242 244 248 243 257 269 239 252 268 264 285 293 292 274 269 268 276 285 285 275 260 250 254 254 260 258 249
252 245 245 244 237 237 235 234 234 236 236 237 236 238 242 238 240 245 248 250 252 259 260 260 258 258 295 288 293 295 282 286 292 283 282 281 272 264 255 256 270 273 271
260 252 248 248 245 236 235 233 232 234 233 234 234 235 239 235 235 244 246 241 241 254 254 265 254 255 259 276 287 285 277 288 289 293 283 276 273 271 265 271 269 271 273
262 261 253 248 246 244 236 234 233 232 230 231 230 232 232 237 235 235 233 245 243 245 255 258 238 268 268 261 261 271 280 281 276 274 286 284 275 275 270 270 268 265 266
257 259 257 254 248 246 244 236 232 234 231 229 229 227 228 228 231 228 228 226 234 222 232 228 242 250 211 241 254 259 268 271 265 266 274 282 291 282 286 284 274 268 266
Height
10973 10973 10973 10972 10971 10970 10970 10971 10973 10974 10976 10978 10980 10985 10990 10993 10996 10999 11002 11005 11009 11011 11012 11016 11020 11022 11024 11027 11028 11022 11031 11030 11030 11030 11030 11030 11030 11028 11028 11027 11025 11022 11018
10973 10971 10971 10971 10970 10970 10969 10970 10972 10973 10974 10977 10980 10983 10987 10990 10993 10996 10999 11003 11007 11009 11011 11013 11017 11020 11022 11024 11027 11029 11030 11030 11030 11029 11029 11029 11029 11029 11028 11027 11026 11023 11020
10971 10971 10970 10970 10969 10969 10968 10968 10970 10972 10972 10974 10977 10980 10983 10987 10991 10994 10996 10999 11003 11006 11009 11012 11014 11016 11020 11022 11024 11028 11029 11030 11029 11030 11029 11029 11030 11029 11027 11027 11026 11024 11022
10968 10968 10968 10969 10968 10968 10968 10967 10968 10970 10971 10972 10975 10979 10981 10984 10988 10991 10994 10997 11000 11002 11006 11009 11012 11015 11017 11017 11021 11025 11031 11036 11031 11028 11028 11029 11029 11029 11027 11027 11026 11023 11021
10966 10966 10965 10967 10967 10967 10967 10967 10966 10967 10970 10971 10973 10976 10980 10982 10986 10988 10991 10994 10997 11000 11003 11007 11010 11012 11013 11015 11017 11022 11026 11020 11028 11026 11025 11026 11028 11029 11028 11027 11026 11023 11021
10965 10963 10963 10964 10965 10965 10965 10965 10966 10965 10966 10969 10971 10973 10976 10979 10982 10985 10989 10992 10994 10997 10999 11002 11006 11008 11010 11013 11016 11018 11022 11023 11024 11024 11025 11025 11026 11027 11028 11027 11024 11023 11023
10964 10961 10961 10961 10962 10963 10962 10962 10964 10964 10965 10966 10968 10970 10973 10976 10979 10982 10985 10989 10992 10994 10996 10999 11002 11003 11004 11007 11010 11012 11015 11018 11020 11021 11022 11024 11025 11026 11026 11025 11024 11022 11022
10973 10969 10959 10958 10958 10960 10961 10961 10961 10962 10963 10964 10966 10967 10969 10972 10976 10979 10982 10984 10987 10990 10993 10995 10998 10999 11000 11002 11005 11008 11010 11013 11014 11017 11019 11020 11021 11022 11022 11022 11022 11022 11021
10983 10971 10958 10956 10956 10958 10959 10960 10961 10960 10961 10962 10963 10965 10967 10968 10970 10973 10976 10980 10982 10985 10986 10989 10992 10994 10996 10998 11000 11002 11004 11007 11008 11011 11012 11015 11016 11018 11019 11018 11019 11020 11019
10956 10957 10955 10953 10953 10953 10955 10956 10958 10959 10958 10959 10959 10961 10964 10965 10966 10968 10971 10972 10975 10978 10981 10983 10986 10987 10991 10994 10996 10997 10997 11001 11003 11004 11008 11010 11011 11013 11013 11014 11014 11016 11017
10948 10948 10947 10947 10946 10946 10947 10949 10951 10954 10956 10956 10956 10956 10959 10962 10963 10964 10966 10967 10969 10971 10974 10978 10979 10980 10983 10986 10988 10990 10990 10993 10995 10998 11000 11003 11005 11006 11008 11008 11010 11012 11013
10941 10940 10941 10943 10946 10945 10944 10946 10947 10948 10951 10953 10953 10953 10954 10956 10958 10960 10962 10964 10966 10967 10969 10972 10974 10976 10977 10978 10979 10980 10982 10983 10986 10988 10991 10994 10996 10998 11000 11003 11005 11007 11009
10931 10932 10946 10946 10951 10948 10943 10942 10944 10945 10945 10948 10950 10950 10950 10952 10953 10955 10957 10958 10962 10963 10965 10966 10967 10967 10969 10970 10969 10971 10973 10974 10976 10978 10980 10983 10986 10989 10992 10994 10997 10998 11001
10921 10926 10940 10946 10931 10934 10933 10934 10936 10939 10940 10941 10944 10946 10946 10948 10949 10950 10952 10954 10956 10957 10958 10959 10960 10961 10961 10962 10962 10962 10963 10964 10966 10969 10970 10972 10975 10979 10982 10985 10987 10990 10992
10911 10913 10924 10929 10922 10921 10924 10925 10926 10931 10933 10935 10939 10941 10941 10942 10943 10944 10946 10948 10950 10952 10953 10953 10953 10952 10952 10952 10954 10953 10953 10954 10954 10955 10958 10961 10963 10967 10970 10973 10976 10980 10982
10899 10900 10904 10915 10914 10912 10915 10916 10920 10925 10927 10930 10933 10935 10936 10937 10938 10939 10940 10941 10942 10944 10946 10947 10948 10947 10945 10944 10945 10946 10946 10946 10944 10943 10943 10945 10949 10953 10958 10961 10965 10969 10973
10886 10888 10893 10896 10902 10905 10903 10908 10913 10917 10920 10922 10924 10928 10930 10931 10933 10934 10935 10936 10936 10937 10939 10940 10941 10941 10941 10940 10940 10941 10941 10940 10939 10936 10935 10934 10935 10940 10946 10952 10956 10960 10963
10874 10875 10879 10886 10887 10891 10894 10897 10901 10906 10912 10913 10917 10919 10922 10925 10926 10927 10928 10930 10932 10932 10933 10934 10936 10939 10940 10940 10938 10937 10937 10938 10937 10934 10933 10931 10930 10932 10936 10940 10945 10948 10951
10855 10859 10861 10863 10871 10877 10884 10887 10891 10894 10900 10902 10908 10912 10917 10919 10920 10922 10922 10924 10925 10926 10927 10928 10930 10931 10934 10936 10937 10937 10936 10935 10934 10932 10930 10929 10929 10930 10930 10932 10936 10938 10940
10827 10832 10837 10850 10857 10862 10869 10874 10879 10885 10889 10892 10897 10903 10907 10910 10913 10916 10917 10917 10918 10918 10919 10922 10924 10927 10928 10931 10933 10935 10934 10933 10932 10932 10928 10926 10926 10926 10926 10928 10930 10932 10934
10808 10811 10816 10827 10838 10845 10854 10861 10866 10872 10878 10883 10886 10893 10898 10902 10905 10906 10908 10909 10911 10914 10915 10917 10919 10921 10923 10924 10926 10928 10929 10928 10929 10930 10930 10926 10925 10926 10927 10927 10928 10928 10928
10788 10790 10794 10803 10813 10822 10832 10841 10850 10855 10862 10870 10876 10881 10888 10894 10896 10898 10901 10905 10912 10913 10911 10909 10910 10910 10916 10919 10920 10920 10923 10923 10923 10924 10925 10924 10922 10922 10924 10924 10924 10924 10923
10766 10772 10777 10783 10792 10800 10810 10819 10829 10838 10848 10855 10863 10868 10874 10883 10885 10891 10895 10901 10911 10914 10909 10906 10904 10901 10908 10914 10914 10913 10915 10917 10917 10916 10916 10916 10916 10915 10916 10916 10918 10918 10918
10751 10756 10762 10766 10772 10783 10790 10799 10809 10818 10830 10839 10848 10855 10862 10871 10876 10882 10884 10892 10901 10901 10904 10905 10904 10905 10898 10913 10912 10906 10904 10907 10907 10907 10907 10908 10907 10906 10906 10907 10908 10907 10907
10739 10742 10746 10750 10754 10761 10771 10780 10788 10796 10810 10821 10831 10840 10850 10857 10865 10869 10871 10879 10883 10888 10892 10898 10892 10892 10897 10899 10905 10900 10894 10896 10897 10895 10894 10897 10896 10897 10896 10896 10896 10895 10895
10727 10730 10733 10736 10739 10744 10750 10762 10771 10779 10791 10803 10813 10823 10836 10845 10852 10857 10864 10869 10871 10876 10876 10875 10876 10872 10870 10881 10888 10889 10886 10885 10884 10881 10882 10883 10886 10887 10886 10886 10887 10885 10884